Location: Hohe Wand Wildgehege
(47.8330°N, 16.0440°E)
Time: 19:19:50
(UTC+02:00)

ISS - Visible Passes

Search period start: 21 October 2019 00:00
Search period end: 30 October 2019 23:00
Orbit: 411 x 421 km, 51.6° (Epoch: 21 October)

Date Brightness Start Highest point End Pass type
(mag) Time Alt. Az. Time Alt. Az. Time Alt. Az.
22 Oct -0.3 06:52:22 10° SSE 06:53:17 11° SE 06:54:11 10° ESE visible
24 Oct -1.4 06:49:39 10° SSW 06:52:28 25° SE 06:55:16 10° E visible
25 Oct -0.9 06:01:53 10° S 06:04:03 16° SE 06:06:12 10° E visible
26 Oct -3.0 06:48:29 10° SW 06:51:46 54° SSE 06:55:05 10° ENE visible
27 Oct -2.3 05:00:46 14° SSW 05:03:14 35° SE 05:06:21 10° ENE visible
28 Oct -1.7 04:14:37 23° SE 04:14:45 23° SE 04:17:29 10° E visible
28 Oct -3.8 05:47:51 10° WSW 05:51:12 78° NNW 05:54:35 10° ENE visible
29 Oct -3.7 05:01:15 34° SW 05:02:34 75° SSE 05:05:56 10° ENE visible
30 Oct -2.3 04:14:50 38° E 04:14:50 38° E 04:17:15 10° ENE visible
30 Oct -3.4 05:47:44 12° W 05:50:43 50° NNW 05:54:01 10° ENE visible
